This is the latest recevied weather packets stored in our database for station/object W1ERB-13. If no packets are shown the sender has not sent any weather packets the latest 10 day(s).
| Time | Temp. | Humidity | Pressure | Rain* | Wind** | Luminosity | Snow |
|---|---|---|---|---|---|---|---|
| 1777895279 | 9.44° C | 64% | 1012.5 hPa | 0 mm | - | 189 W/m² | - |
| 1777894976 | 8.89° C | 65% | 1012.5 hPa | 0 mm | - | 80 W/m² | - |
| 1777894674 | 8.33° C | 66% | 1012.6 hPa | 0 mm | - | 188 W/m² | - |
| 1777894370 | 8.33° C | 66% | 1012.8 hPa | 0 mm | - | 171 W/m² | - |
| 1777894067 | 7.78° C | 66% | 1012.7 hPa | 0 mm | - | 76 W/m² | - |
| 1777893758 | 8.33° C | 66% | 1012.7 hPa | 0 mm | - | 59 W/m² | - |
| 1777893455 | 8.89° C | 65% | 1012.7 hPa | 0 mm | - | 68 W/m² | - |
| 1777893152 | 8.33° C | 64% | 1012.6 hPa | 0 mm | - | 95 W/m² | - |
| 1777892848 | 7.78° C | 65% | 1012.5 hPa | 0 mm | - | 84 W/m² | - |
| 1777892544 | 7.78° C | 64% | 1012.4 hPa | 0 mm | - | 50 W/m² | - |
| 1777892240 | 7.78° C | 64% | 1012.4 hPa | 0 mm | - | 41 W/m² | - |
| 1777891937 | 7.78° C | 65% | 1012.4 hPa | 0 mm | - | 36 W/m² | - |
| 1777891635 | 7.78° C | 65% | 1012.2 hPa | 0 mm | - | 34 W/m² | - |
| 1777891331 | 7.22° C | 66% | 1012.3 hPa | 0 mm | - | 35 W/m² | - |
| 1777891027 | 7.22° C | 67% | 1012.5 hPa | 0 mm | - | 30 W/m² | - |
| 1777890726 | 7.22° C | 68% | 1012.3 hPa | 0 mm | - | 24 W/m² | - |
| 1777890422 | 7.78° C | 66% | 1012.3 hPa | 0 mm | - | 21 W/m² | - |
| 1777890118 | 7.78° C | 66% | 1012.1 hPa | 0 mm | - | 21 W/m² | - |
| 1777889815 | 7.78° C | 66% | 1012.2 hPa | 0 mm | - | 17 W/m² | - |
| 1777889512 | 7.78° C | 65% | 1012.3 hPa | 0 mm | - | 14 W/m² | - |
| 1777889210 | 7.78° C | 65% | 1012.1 hPa | 0 mm | - | 12 W/m² | - |
| 1777888908 | 7.78° C | 63% | 1011.9 hPa | 0 mm | - | 10 W/m² | - |
| 1777888604 | 7.78° C | 61% | 1011.8 hPa | 0 mm | - | 7 W/m² | - |
| 1777888300 | 7.78° C | 62% | 1011.7 hPa | 0 mm | - | 6 W/m² | - |
| 1777887997 | 7.22° C | 64% | 1011.8 hPa | 0 mm | - | 3 W/m² | - |
* Rain latest hour (hover to see other rain measurements)
** Current wind speed in m/s (hover to see current wind gust speed)